Ogden Hill AFB, UT

10:14 PM MDT on May 27, 2017 (GMT -0600)
Hill Air Force Base

Weather History for KHIF - December, 2013

Change the Weather History Date:

Monday, December 16, 2013

  Actual Average Record
Temperature  
Mean Temperature 24 °F -  
Max Temperature 32 °F 32 °F 46 °F (1979)
Min Temperature 15 °F 20 °F 8 °F (2001)
Degree Days  
Heating Degree Days 42    
Moisture  
Dew Point 16 °F    
Average Humidity 76    
Maximum Humidity 86    
Minimum Humidity 58    
Precipitation  
Precipitation 0.00 in - - ()
Snow  
Snow 0.00 in - - ()
Snow Depth 4.00 in    
Sea Level Pressure  
Sea Level Pressure 30.54 in    
Wind  
Wind Speed 6 mph (SE)    
Max Wind Speed 13 mph    
Max Gust Speed -    
Visibility 8 miles    
Events      
Averages and records for this station are not official NWS values.
T = Trace of Precipitation, MM = Missing Value Source: NWS Daily Summary

Daily Weather History Graph

Daily Weather History Graph

Search for Another Location

Airport or City:

Trip Planner

Search our weather history database for the weather conditions in past years. The results will help you decide how hot, cold, wet, or windy it might be!

Date:

Astronomy

Dec. 16, 2013 Rise Set
Actual Time 7:46 AM MST 5:00 PM MST
Civil Twilight 7:15 AM MST 5:31 PM MST
Nautical Twilight 6:41 AM MST 6:06 PM MST
Astronomical Twilight 6:07 AM MST 6:39 PM MST
Moon 4:54 PM MST (12/16) 6:57 AM MST (12/16)
Length of Visible Light 10h 15m
Length of Day
9h 13m
Full, 100% of the Moon is Illuminated
Dec 16
Full
Dec 17
Full
Dec 25
Last Quarter
Jan 1
New
Jan 7
First Quarter

Hourly Weather History & Observations

Time (MST) Temp. Windchill Dew Point Humidity Pressure Visibility Wind Dir Wind Speed Gust Speed Precip Events Conditions
12:58 AM 18.7 °F 11.9 °F 13.3 °F 79% 30.53 in 10.0 mi ESE 4.6 mph - N/A   Clear
1:58 AM 19.6 °F 10.6 °F 14.5 °F 81% 30.53 in 10.0 mi East 6.9 mph - N/A   Partly Cloudy
2:58 AM 21.4 °F 13.8 °F 14.9 °F 76% 30.54 in 10.0 mi East 5.8 mph - N/A   Clear
3:58 AM 21.0 °F 10.6 °F 14.7 °F 77% 30.53 in 10.0 mi ESE 9.2 mph - N/A   Scattered Clouds
4:23 AM 21.2 °F 8.9 °F 15.8 °F 80% 30.45 in 10.0 mi East 12.7 mph - N/A   Mostly Cloudy
4:58 AM 21.7 °F 11.5 °F 15.6 °F 77% 30.55 in 10.0 mi SE 9.2 mph - N/A   Overcast
5:13 AM 23.0 °F 11.1 °F 15.8 °F 74% 30.45 in 10.0 mi East 12.7 mph - N/A   Scattered Clouds
5:18 AM 23.0 °F 12.4 °F 15.8 °F 74% 30.46 in 10.0 mi East 10.4 mph - N/A   Mostly Cloudy
5:58 AM 22.1 °F 13.7 °F 15.6 °F 76% 30.55 in 10.0 mi ESE 6.9 mph - N/A   Overcast
6:13 AM 23.0 °F - 15.8 °F 74% 30.45 in 10.0 mi SE 2.3 mph - N/A   Scattered Clouds
6:58 AM 20.3 °F 13.8 °F 14.4 °F 78% 30.57 in 10.0 mi ESE 4.6 mph - N/A   Clear
7:58 AM 18.5 °F 6.8 °F 12.6 °F 78% 30.59 in 10.0 mi East 10.4 mph - N/A   Clear
8:58 AM 18.5 °F 11.7 °F 12.6 °F 78% 30.59 in 7.0 mi ESE 4.6 mph - N/A   Clear
9:58 AM 23.9 °F 15.8 °F 15.4 °F 70% 30.59 in 10.0 mi SE 6.9 mph - N/A   Partly Cloudy
10:58 AM 26.2 °F - 18.3 °F 72% 30.61 in 10.0 mi Calm Calm - N/A   Partly Cloudy
11:58 AM 28.9 °F 22.8 °F 18.0 °F 64% 30.56 in 10.0 mi ESE 5.8 mph - N/A   Partly Cloudy
12:58 PM 32.2 °F 25.0 °F 19.0 °F 58% 30.54 in 10.0 mi ESE 8.1 mph - N/A   Partly Cloudy
1:58 PM 30.2 °F 26.7 °F 20.3 °F 67% 30.56 in 7.0 mi SSW 3.5 mph - N/A   Partly Cloudy
2:58 PM 30.0 °F 24.1 °F 21.7 °F 71% 30.53 in 6.0 mi SW 5.8 mph - N/A   Haze
3:23 PM 28.4 °F 22.2 °F 21.2 °F 74% 30.45 in 4.0 mi SW 5.8 mph - N/A   Haze
3:58 PM 26.6 °F - 19.6 °F 75% 30.56 in 4.0 mi WSW 2.3 mph - N/A   Haze
4:58 PM 22.5 °F 15.1 °F 17.2 °F 80% 30.58 in 3.0 mi NW 5.8 mph - N/A   Haze
5:58 PM 21.6 °F - 17.2 °F 83% 30.59 in 4.0 mi North 1.2 mph - N/A   Clear
6:08 PM 21.2 °F - 17.6 °F 86% 30.47 in 3.0 mi WNW 1.2 mph - N/A   Clear
6:58 PM 23.4 °F - 17.2 °F 77% 30.58 in 3.0 mi ENE 2.3 mph - N/A   Clear
7:58 PM 15.3 °F 7.9 °F 11.3 °F 84% 30.62 in 3.0 mi SE 4.6 mph - N/A   Clear
9:03 PM 22.8 °F 12.9 °F 16.0 °F 75% 30.60 in 4.0 mi ESE 9.2 mph - N/A   Clear
9:05 PM 23.0 °F 12.4 °F 15.8 °F 74% 30.48 in 10.0 mi ESE 10.4 mph - N/A   Clear
9:50 PM 19.4 °F 14.3 °F 14.0 °F 80% 30.48 in 8.0 mi SSE 3.5 mph - N/A   Clear
9:58 PM 19.4 °F 14.3 °F 15.8 °F 86% 30.59 in 4.0 mi South 3.5 mph - N/A   Clear
10:08 PM 17.6 °F 10.7 °F 12.2 °F 79% 30.49 in 5.0 mi SSW 4.6 mph - N/A   Haze
10:13 PM 15.8 °F 10.2 °F 12.2 °F 86% 30.49 in 5.0 mi South 3.5 mph - N/A   Haze
10:38 PM 21.2 °F 16.4 °F 15.8 °F 80% 30.50 in 10.0 mi East 3.5 mph - N/A   Clear
10:58 PM 22.5 °F 10.5 °F 15.3 °F 74% 30.60 in 10.0 mi ESE 12.7 mph - N/A   Clear
11:58 PM 20.7 °F 11.0 °F 14.7 °F 78% 30.60 in 10.0 mi East 8.1 mph - N/A   Clear